Home > Weather > Astrakhan > Past weeks

Flag for Russia Past Weather in Astrakhan, Russia — Yesterday and Last 2 Weeks

Now
90 °F

Passing clouds.


Feels Like: 86 °F
Forecast: 71 / 92 °F
Wind: 8 mph from Northeast

Location: Astrakhan

Current Time: Jun 26, 2016 at 6:04:31 PM

Latest Report: Jun 26, 2016 at 5:30 PM


Visibility: N/A

Pressure: 29.92 "Hg

Humidity: 22%

Dew Point: 46 °F

Location of AstrakhanLocation

Past Weather in Astrakhan — Graph

°F

Astrakhan Temperature Yesterday

Maximum temperature yesterday: 93 °F (at 3:00 PM)
Minimum temperature yesterday: 68 °F (at 3:00 AM)
Average temperature yesterday: 82 °F

High & Low Weather Summary for the Past Weeks

 TemperatureHumidityPressure
High99 °F (Jun 18, 1:30 PM)94% (Jun 12, 2:30 AM)30.12 "Hg (Jun 12, 2:30 AM)
Low55 °F (Jun 12, 2:30 AM)16% (Jun 18, 3:00 PM)29.77 "Hg (Jun 15, 8:30 PM)
Average80 °F48%29.99 "Hg
* Reported Jun 11 4:00 PM — Jun 26 4:30 PM, Astrakhan, Weather by CustomWeather, © 2016

Note: Actual official high and low records may vary slightly from our data, if they occured in-between our weather recording intervals... More about our weather records

Advertising

Astrakhan Weather History for the Previous 24 Hours

Scroll right to see more
 ConditionsComfort  
Time TempWeatherWind HumidityBarometerVisibility
4:30 PM
Sun, Jun 26
93 °FPassing clouds.8 mph19%29.95 "HgN/A
4:00 PM93 °FScattered clouds.8 mph19%29.95 "HgN/A
3:30 PM93 °FScattered clouds.8 mph17%29.95 "HgN/A
3:00 PM93 °FScattered clouds.6 mph17%29.95 "HgN/A
2:30 PM93 °FScattered clouds.8 mph19%29.98 "HgN/A
2:00 PM93 °FScattered clouds.6 mph20%29.98 "HgN/A
1:30 PM91 °FScattered clouds.8 mph21%29.98 "HgN/A
1:00 PM91 °FScattered clouds.8 mph23%29.98 "HgN/A
12:30 PM91 °FScattered clouds.6 mph23%29.98 "HgN/A
12:00 PM91 °FPassing clouds.8 mph21%30.01 "HgN/A
11:30 AM91 °FPassing clouds.6 mph23%30.01 "HgN/A
11:00 AM90 °FPassing clouds.8 mph26%30.01 "HgN/A
10:30 AM90 °FPassing clouds.8 mph26%30.01 "HgN/A
10:00 AM88 °FPassing clouds.6 mph25%30.01 "HgN/A
9:30 AM86 °FPassing clouds.3 mph27%30.01 "HgN/A
9:00 AM84 °FPassing clouds.3 mph33%30.01 "HgN/A
8:30 AM82 °FSunny.No wind35%30.01 "Hg10 mi
8:00 AM81 °FPassing clouds.3 mph39%30.01 "HgN/A
7:30 AM79 °FSunny.1 mph45%30.01 "Hg10 mi
7:00 AM75 °FSunny.1 mph57%30.01 "Hg10 mi
6:30 AM73 °FSunny.No wind61%30.01 "Hg10 mi
6:00 AM66 °FSunny.3 mph78%30.01 "Hg10 mi
5:30 AM66 °FSunny.1 mph78%29.98 "Hg10 mi
5:00 AM64 °FSunny.No wind78%29.98 "Hg10 mi
4:30 AM66 °FClear.3 mph68%29.98 "Hg10 mi
4:00 AM68 °FClear.3 mph73%29.98 "Hg10 mi
3:30 AM64 °FClear.1 mph78%29.98 "Hg10 mi
3:00 AM68 °FClear.1 mph69%29.98 "Hg10 mi
2:00 AM68 °FClear.1 mph64%29.98 "Hg10 mi
1:30 AM70 °FClear.1 mph60%29.98 "Hg10 mi
1:00 AM72 °FClear.1 mph53%29.98 "Hg10 mi
12:30 AM75 °FPassing clouds.3 mph47%29.98 "HgN/A
12:00 AM75 °FClear.3 mph47%29.98 "Hg10 mi
11:30 PM
Sat, Jun 25
77 °FClear.6 mph42%29.98 "Hg10 mi
11:00 PM77 °FClear.3 mph42%29.98 "Hg10 mi
10:30 PM73 °FClear.No wind47%29.98 "Hg10 mi
10:00 PM81 °FClear.3 mph32%29.98 "Hg10 mi
9:30 PM81 °FClear.3 mph32%29.98 "Hg10 mi
9:00 PM82 °FClear.6 mph28%29.98 "Hg10 mi
8:30 PM84 °FSunny.6 mph25%29.98 "Hg10 mi
8:00 PM86 °FPassing clouds.6 mph24%29.95 "HgN/A
7:30 PM88 °FSunny.6 mph22%29.95 "Hg10 mi
7:00 PM88 °FSunny.8 mph22%29.95 "Hg10 mi
6:30 PM90 °FPassing clouds.8 mph21%29.95 "HgN/A
6:00 PM90 °FPassing clouds.8 mph21%29.95 "HgN/A
Weather by CustomWeather, © 2016

See weather overviewHow to use our weather pages